TimeMST,TemperatureF,Dew PointF,Humidity,Sea Level PressureIn,VisibilityMPH,Wind Direction,Wind SpeedMPH,Gust SpeedMPH,PrecipitationIn,Events,Conditions,WindDirDegrees,DateUTC
12:53 AM,28.9,14.0,54,29.95,10.0,NNW,12.7,-,N/A,,Clear,340,2013-02-04 07:53:00
1:53 AM,28.0,14.0,56,29.98,10.0,NNW,12.7,-,N/A,,Clear,330,2013-02-04 08:53:00
3:53 AM,27.0,14.0,58,29.98,10.0,NW,10.4,-,N/A,,Clear,320,2013-02-04 10:53:00
4:53 AM,30.0,14.0,51,29.98,10.0,NW,9.2,-,N/A,,Clear,310,2013-02-04 11:53:00
5:53 AM,23.0,14.0,68,30.02,10.0,WSW,8.1,-,N/A,,Clear,250,2013-02-04 12:53:00
6:53 AM,26.1,12.9,58,30.02,10.0,WSW,10.4,-,N/A,,Clear,240,2013-02-04 13:53:00
7:53 AM,32.0,15.1,50,29.99,10.0,WSW,9.2,-,N/A,,Clear,250,2013-02-04 14:53:00
8:53 AM,37.0,16.0,42,29.98,10.0,WSW,8.1,-,N/A,,Clear,240,2013-02-04 15:53:00
9:53 AM,41.0,16.0,36,29.96,10.0,SSW,8.1,-,N/A,,Clear,210,2013-02-04 16:53:00
10:53 AM,46.0,12.0,25,29.96,10.0,SSW,8.1,-,N/A,,Clear,210,2013-02-04 17:53:00
11:53 AM,50.0,12.0,22,29.90,10.0,SW,15.0,25.3,N/A,,Clear,230,2013-02-04 18:53:00
12:53 PM,53.1,10.0,18,29.86,10.0,SW,16.1,-,N/A,,Clear,220,2013-02-04 19:53:00
1:53 PM,54.0,6.1,15,29.84,10.0,West,12.7,17.3,N/A,,Clear,280,2013-02-04 20:53:00
2:53 PM,55.0,8.1,15,29.83,10.0,West,9.2,-,N/A,,Partly Cloudy,280,2013-02-04 21:53:00
3:53 PM,53.1,7.0,16,29.83,10.0,WNW,12.7,-,N/A,,Clear,300,2013-02-04 22:53:00
4:53 PM,45.0,10.0,24,29.86,10.0,WNW,5.8,-,N/A,,Clear,300,2013-02-04 23:53:00
5:53 PM,37.0,12.9,37,29.95,10.0,North,11.5,-,N/A,,Clear,350,2013-02-05 00:53:00
6:53 PM,34.0,16.0,48,29.97,10.0,North,10.4,-,N/A,,Clear,10,2013-02-05 01:53:00
7:53 PM,36.0,15.1,43,29.94,10.0,NNE,4.6,-,N/A,,Partly Cloudy,30,2013-02-05 02:53:00
8:53 PM,34.0,15.1,46,29.92,10.0,NE,4.6,-,N/A,,Clear,40,2013-02-05 03:53:00
9:53 PM,33.1,16.0,50,29.92,10.0,Calm,Calm,-,N/A,,Clear,0,2013-02-05 04:53:00
10:53 PM,30.9,16.0,54,29.91,10.0,SW,3.5,-,N/A,,Clear,230,2013-02-05 05:53:00
11:53 PM,30.9,16.0,54,29.92,10.0,West,3.5,-,N/A,,Clear,280,2013-02-05 06:53:00